Wind_Speed
14 15 15 14 13 14 15 15 15 16 16 16 18 19 20 22 24 17 13 13 9 9 10 10 9 7 10 8 6 4 7 13 16 12 10 1 4 2 4 9 5 4 10 12 6
15 16 16 17 18 17 14 14 14 15 14 14 15 17 19 19 18 12 30 29 28 21 17 16 9 12 7 8 7 8 12 20 16 15 13 10 5 10 8 17 19 16 15 12 8
15 15 16 17 18 18 18 17 16 14 15 15 15 15 16 14 6 5 12 7 15 23 19 14 14 16 11 5 11 10 20 26 21 18 10 18 17 13 16 24 22 19 20 22 15
18 17 17 17 17 17 19 19 18 17 15 14 14 13 15 4 8 11 6 12 19 18 20 17 13 12 12 17 16 15 23 24 25 17 13 20 17 18 21 28 22 23 19 20 19
20 20 20 20 20 20 19 18 19 19 18 16 13 12 7 5 9 10 14 16 9 8 18 17 18 18 15 15 18 22 22 20 22 21 20 18 20 20 28 27 22 22 19 19 18
20 20 22 22 22 22 22 22 21 21 21 17 13 11 6 14 10 19 22 22 5 7 11 16 9 13 10 11 20 11 24 23 18 16 21 21 26 19 25 22 20 19 20 20 18
20 21 22 23 23 22 23 25 24 23 20 17 13 9 13 23 13 15 14 15 5 5 10 16 24 8 5 9 15 14 15 13 14 15 14 9 26 20 29 19 21 24 19 19 18
21 23 23 23 22 23 24 27 27 27 22 17 13 9 9 11 14 23 21 22 22 21 15 14 18 18 9 4 1 10 11 18 12 19 12 13 32 20 18 13 17 18 16 16 19
24 25 25 24 23 23 25 28 32 18 11 6 5 6 11 6 9 15 18 20 16 15 15 8 14 11 8 15 9 11 14 15 13 11 5 16 21 17 10 8 15 18 18 18 18
25 26 27 26 25 24 26 31 10 3 5 5 3 4 7 3 4 15 14 18 13 10 8 9 9 12 14 17 21 15 15 14 16 11 17 23 26 19 18 14 18 19 17 18 20
25 26 26 23 24 24 29 9 2 2 3 7 7 8 19 15 17 9 4 4 12 17 16 20 13 25 31 22 18 18 20 25 22 15 15 19 19 14 16 18 20 20 19 20 20
27 27 24 24 22 24 7 3 5 3 11 16 23 23 33 22 12 16 10 8 10 21 22 13 30 26 20 21 23 22 23 21 14 12 10 17 20 16 17 22 22 19 20 21 19
28 25 24 23 24 5 7 5 2 10 5 15 11 10 8 9 12 24 7 8 13 20 30 30 35 18 22 22 23 25 25 23 19 15 14 17 22 19 20 11 16 17 19 20 18
26 24 25 23 8 8 6 1 10 4 4 6 3 4 2 4 7 18 18 14 13 23 24 23 24 25 26 28 22 25 24 20 18 11 14 3 14 17 19 22 22 21 17 17 16
25 24 23 15 10 5 3 10 13 4 5 2 3 2 8 5 11 5 21 16 19 13 20 20 24 20 25 28 27 16 11 15 16 17 16 17 11 12 14 22 24 20 19 15 9
27 27 21 8 4 9 9 13 2 3 8 3 2 8 16 6 9 10 5 20 17 22 22 21 13 27 25 20 21 12 7 8 6 7 12 15 11 14 14 20 18 14 13 4 6
31 28 14 4 3 1 8 2 3 5 6 0 5 12 16 11 8 10 14 12 16 18 20 19 18 8 17 18 17 20 12 5 6 8 9 16 13 18 14 19 18 19 11 5 1
31 22 5 3 7 4 2 2 6 4 8 12 12 16 15 10 6 11 18 12 20 18 11 15 14 21 20 20 14 24 20 8 7 5 10 5 9 7 16 19 22 17 12 2 6
30 8 3 10 7 8 2 3 3 4 5 10 15 9 6 8 7 8 8 11 10 24 7 15 15 16 19 15 21 17 18 15 6 2 7 3 6 11 18 14 11 10 6 6 9
11 5 5 10 5 3 2 3 4 7 10 7 7 7 11 10 9 6 4 11 13 11 11 7 12 13 22 22 23 19 17 10 9 8 8 8 8 8 14 8 8 8 7 9 11
7 2 1 12 5 2 2 4 5 10 10 4 6 9 10 11 6 2 4 6 14 15 12 11 7 15 18 24 24 11 16 7 10 7 6 4 5 11 16 12 8 3 8 10 12
5 2 7 11 1 1 4 9 7 9 9 7 7 9 10 11 7 3 4 2 7 10 8 5 6 9 27 15 20 21 20 20 9 9 10 3 6 2 8 7 6 2 8 13 12
5 3 5 4 4 6 8 6 5 7 8 5 6 5 12 8 5 3 4 4 3 4 3 7 7 11 9 6 17 25 20 17 4 5 16 9 5 4 3 3 0 5 12 13 14
3 4 3 3 1 5 7 5 7 8 9 6 10 8 12 6 4 5 6 2 3 4 17 6 4 8 12 14 7 25 23 19 14 9 8 17 12 20 16 7 5 6 11 15 15
3 2 1 4 4 9 6 6 9 7 5 7 2 4 8 6 11 4 3 1 2 7 13 3 3 6 14 8 4 21 22 24 20 16 8 6 20 20 13 8 3 9 11 15 17
3 3 2 6 8 9 4 4 9 8 5 10 6 13 13 11 13 14 5 4 3 4 8 5 1 5 11 11 7 7 8 21 25 22 18 14 18 13 13 2 5 12 14 15 17
1 4 2 5 4 4 3 5 7 13 8 8 13 16 15 13 8 11 12 12 11 5 5 6 6 4 8 4 6 6 2 7 15 20 21 20 24 13 14 11 5 13 17 17 19
Wind_Direction
1 357 350 341 333 332 332 331 329 323 324 327 326 325 325 328 315 306 262 248 272 291 225 161 188 199 171 175 149 140 228 240 236 235 254 301 272 24 315 282 267 227 287 301 299
354 351 346 344 346 342 331 329 328 327 323 318 315 319 328 335 319 282 279 277 266 254 203 174 177 192 185 190 179 197 225 233 236 240 256 283 303 313 296 294 281 282 279 267 275
352 351 345 339 335 334 335 335 328 325 324 323 314 323 328 335 278 226 62 31 254 239 215 205 203 186 211 192 186 207 231 232 253 248 265 284 281 292 291 283 284 293 294 299 284
351 347 341 334 332 330 328 327 325 324 319 318 322 320 329 317 247 157 119 12 3 206 215 219 188 203 202 208 211 235 231 236 247 255 261 263 289 284 281 271 282 287 288 281 283
347 345 340 337 334 329 323 319 316 317 319 320 319 319 333 240 241 204 252 301 2 153 203 201 192 204 201 210 212 229 242 233 245 261 260 270 264 266 279 283 287 278 277 268 273
343 342 339 336 332 328 323 320 315 315 311 313 309 311 261 252 242 256 262 286 271 205 188 210 222 225 245 227 201 237 238 243 243 250 260 269 270 268 265 269 286 276 274 278 270
342 340 338 334 331 328 322 321 316 309 303 293 291 285 257 250 262 283 280 274 233 242 237 235 230 247 243 241 232 240 255 238 236 235 242 285 271 248 262 278 269 274 277 278 276
338 338 335 332 330 327 324 319 317 312 299 286 271 251 256 260 280 275 267 274 259 244 251 252 230 236 244 298 192 223 230 243 229 233 244 212 266 264 270 273 274 275 279 276 277
338 338 334 331 329 326 324 317 320 311 294 228 207 214 267 277 265 271 259 250 253 223 217 245 217 220 209 232 242 215 238 228 243 210 201 197 264 261 266 282 283 280 281 279 279
335 335 332 330 328 329 325 323 332 66 77 127 198 245 250 289 264 306 272 237 234 186 180 204 206 211 213 205 218 221 226 236 243 229 223 245 253 272 285 288 275 278 283 279 276
331 333 332 330 328 330 326 342 334 194 324 261 253 253 282 275 282 260 313 257 215 202 190 187 202 219 214 216 238 249 247 246 252 239 238 257 274 280 287 287 280 281 286 282 278
331 331 329 330 328 323 340 13 71 343 298 261 251 252 257 268 293 273 249 217 194 206 194 182 223 217 218 215 220 228 241 242 251 256 269 278 278 286 283 276 279 280 282 278 282
332 331 330 327 326 315 319 288 331 337 259 292 244 253 251 229 244 271 221 203 219 211 195 198 224 205 211 208 214 224 233 239 245 266 270 281 280 276 276 273 275 277 273 274 269
335 330 331 330 324 330 305 162 332 308 289 273 233 241 216 224 241 242 225 211 219 220 206 225 213 196 207 216 208 230 225 251 251 257 263 317 288 275 286 285 281 281 273 266 262
335 330 328 321 288 277 295 311 324 173 293 99 138 156 329 231 305 318 214 216 230 210 194 212 196 191 201 205 208 235 228 225 237 248 273 260 265 280 283 281 275 275 267 264 285
336 331 325 315 265 263 290 314 278 210 245 286 59 347 338 359 315 300 245 227 219 241 232 219 207 197 210 199 203 197 208 198 229 253 254 262 248 276 265 259 274 267 261 278 341
337 334 325 259 274 222 315 290 206 236 339 313 339 331 322 335 348 340 320 197 216 203 220 213 220 203 190 193 195 195 182 213 230 220 247 237 238 248 263 254 260 266 279 336 107
335 332 330 270 314 271 273 181 225 264 259 321 339 324 305 10 3 343 331 236 212 236 222 210 201 202 191 195 177 192 190 173 207 228 264 147 220 256 247 263 244 250 274 266 150
337 352 12 329 322 186 212 199 260 252 346 330 326 313 313 333 349 339 343 323 226 217 253 206 228 183 189 189 181 184 205 208 264 267 280 197 268 280 246 245 237 238 229 185 158
346 340 4 26 24 210 219 267 285 328 334 317 293 262 292 313 321 28 336 26 349 358 352 272 223 206 188 185 205 205 186 186 206 228 245 256 285 255 298 272 206 193 195 166 149
10 355 319 341 48 42 355 315 292 291 321 298 292 295 288 296 341 52 287 334 12 332 336 270 280 183 172 202 190 179 189 193 191 214 209 285 259 230 246 267 265 315 144 153 151
6 336 346 353 357 57 340 325 310 294 324 292 275 278 272 314 293 240 217 241 352 324 306 300 286 244 206 195 200 197 191 183 185 190 227 329 265 268 251 283 291 223 136 137 156
343 297 346 0 39 354 335 309 275 297 325 320 298 331 321 301 295 251 207 210 256 293 321 343 226 216 149 199 204 199 199 191 155 164 200 199 243 196 300 238 246 142 138 147 157
351 341 339 26 43 336 324 300 311 301 292 308 284 326 340 321 325 266 239 203 250 305 313 292 257 260 200 199 159 198 195 192 198 201 202 217 225 266 283 332 33 137 153 158 165
4 8 343 315 331 316 309 306 304 327 321 315 282 351 359 311 323 28 332 233 249 329 333 335 226 270 267 279 301 173 197 199 204 218 212 209 228 245 270 316 67 156 162 164 157
324 328 309 296 297 301 301 305 298 315 306 313 288 324 325 292 285 294 309 7 312 304 322 7 31 345 260 244 252 144 163 204 208 223 235 249 263 252 286 332 168 163 181 179 163
308 279 268 285 287 281 293 291 291 305 284 253 306 312 305 302 302 288 277 263 258 280 332 343 351 353 212 343 225 238 263 199 209 223 221 223 241 276 287 288 233 185 189 189 169
Height
827 825 822 821 820 816 814 812 809 809 806 805 803 801 799 796 792 790 786 779 780 784 787 785 788 791 791 788 788 793 803 797 792 791 771 766 770 767 762 763 757 757 754 751 751
827 824 821 819 814 813 813 809 808 808 807 805 804 801 797 794 790 784 776 774 775 781 784 780 785 792 786 785 785 789 795 786 767 765 768 766 772 769 767 759 754 753 749 750 750
826 824 822 819 816 813 810 807 806 805 804 802 800 797 796 794 790 773 772 769 769 775 778 780 781 785 787 784 779 779 781 768 764 761 768 768 766 762 764 756 745 750 744 742 743
824 822 820 817 814 811 808 807 806 803 800 799 796 796 794 793 784 766 765 766 764 765 775 778 776 784 777 780 774 780 767 767 758 761 767 767 762 762 759 745 743 739 739 738 736
822 820 817 814 811 809 806 804 801 800 797 794 793 793 791 789 771 766 763 764 768 769 771 771 772 774 771 768 770 772 766 761 758 760 763 763 764 760 749 736 740 735 734 732 730
822 819 815 812 809 805 802 799 796 793 791 790 791 792 792 787 766 763 762 761 766 768 769 771 767 765 765 766 764 754 762 757 756 759 756 761 753 754 740 730 734 732 727 724 723
821 817 813 809 806 803 799 795 792 790 790 790 790 788 784 766 762 761 761 762 764 766 766 766 766 768 761 764 752 758 766 759 758 756 758 756 746 750 726 730 732 726 721 719 716
819 815 811 807 803 799 794 790 787 785 783 784 784 785 771 762 759 758 759 755 757 760 765 764 765 764 765 757 756 763 761 761 748 750 750 759 736 726 721 727 725 720 717 716 709
816 812 809 805 800 796 792 786 781 777 776 777 781 781 765 757 756 754 755 754 752 752 758 759 762 760 760 765 764 756 753 759 753 743 745 748 734 721 721 724 724 717 712 710 706
815 810 806 802 798 794 789 782 777 776 776 777 777 779 759 750 750 750 749 749 748 748 752 756 755 755 753 751 743 749 759 753 754 740 739 735 729 724 723 721 720 713 706 706 701
813 809 804 800 796 792 786 780 779 777 777 771 767 760 749 746 748 744 747 748 747 738 737 742 752 736 730 741 740 743 743 740 732 731 738 731 731 728 719 714 713 708 702 697 690
811 807 802 798 795 791 787 785 786 790 775 764 757 754 749 747 746 738 744 745 739 728 728 741 722 715 726 734 742 744 744 741 736 736 738 732 729 720 715 710 704 700 695 690 683
807 803 800 796 792 790 788 787 786 786 779 750 746 745 742 743 745 734 736 732 731 730 713 705 678 716 726 730 739 737 739 738 741 732 732 733 729 718 704 702 696 690 688 682 679
804 800 797 793 792 789 787 785 784 783 773 747 740 739 737 737 736 725 726 726 722 715 713 703 697 707 716 722 728 733 726 735 739 747 744 727 738 716 707 700 687 682 682 674 669
802 797 794 792 791 789 787 785 782 783 768 735 735 734 730 732 725 711 718 721 715 707 708 687 695 701 709 708 712 722 723 734 737 740 737 733 740 714 703 697 681 673 669 665 664
798 793 790 788 787 785 784 782 782 776 763 735 731 734 728 720 718 713 715 716 707 709 697 689 684 692 687 700 706 714 725 730 732 735 744 727 735 714 700 683 675 665 658 659 663
795 789 785 786 784 783 782 781 777 768 740 737 739 735 728 721 718 716 719 717 707 710 702 695 691 682 682 700 704 716 728 743 748 746 735 705 722 698 676 667 668 663 654 660 668
790 785 783 783 782 782 782 780 780 751 746 737 738 731 725 722 722 722 717 705 706 694 686 693 701 681 673 681 696 707 712 722 742 732 714 713 718 691 664 656 655 653 653 662 669
786 782 782 782 779 781 782 779 757 752 749 748 739 732 724 722 725 723 725 717 692 697 694 685 682 664 670 673 678 699 710 696 715 720 717 708 695 675 659 658 653 653 658 664 669
787 785 784 781 780 780 778 769 764 756 753 749 748 736 732 724 724 728 738 729 727 714 713 689 681 662 668 669 671 676 687 718 714 734 734 706 701 686 661 656 651 651 657 665 669
789 785 783 782 782 784 776 771 768 756 755 752 746 741 734 730 731 739 739 737 737 722 716 699 686 665 666 663 666 685 689 692 698 705 716 714 689 656 652 643 646 645 650 662 669
792 786 783 781 780 784 779 775 770 757 752 750 744 741 739 733 730 735 737 737 741 738 722 703 690 672 655 649 651 661 669 680 694 716 699 708 689 652 651 646 648 647 652 661 671
795 794 784 782 786 783 778 772 768 759 754 750 745 739 736 733 736 725 732 731 735 733 724 712 687 671 669 666 657 662 665 672 681 687 700 708 683 647 646 647 648 651 655 664 671
798 793 788 786 789 788 784 770 766 756 753 751 745 742 737 730 725 731 728 729 733 729 721 714 698 678 651 654 653 664 668 671 676 686 686 684 671 650 644 647 649 656 659 662 669
802 797 797 790 785 788 783 778 771 761 754 750 744 747 753 740 731 731 733 728 727 729 712 709 696 689 672 674 659 655 663 667 675 673 683 673 673 656 647 648 650 654 662 665 668
803 800 796 792 788 784 776 774 768 761 763 752 749 744 747 744 738 736 734 729 727 720 710 705 694 692 674 668 664 661 658 659 665 666 673 669 662 644 639 646 653 653 662 662 664
803 801 800 789 787 785 775 774 770 770 755 752 751 750 743 734 730 729 727 724 721 720 712 706 700 694 670 670 661 664 662 657 658 659 665 669 648 647 646 645 650 652 656 656 658